Back to catalog

STARLINK-35611

AliveCommunicationsVLEO
NORAD 66427·PAYLOAD·🇺🇸 United States

Launched Nov 11, 2025 from Cape Canaveral Space Force Station

Loading…

Next Passes (next 24 hours)

TLE

FreshSource: CelesTrak SupGP

Epoch: Sep 14, 2026, 23:07 UTC

1 66427C 25259F   26257.96368056  .00027274  00000+0  98793-3 0  2570
2 66427  43.0022 285.3956 0001594 265.9327 275.8683 15.27562857    17

Track STARLINK-35611 in real time with AllMySat

Download on the App Store